CDT,Max TemperatureF,Mean TemperatureF,Min TemperatureF,Max Dew PointF,MeanDew PointF,Min DewpointF,Max Humidity, Mean Humidity, Min Humidity, Max Sea Level PressureIn, Mean Sea Level PressureIn, Min Sea Level PressureIn, Max VisibilityMiles, Mean VisibilityMiles, Min VisibilityMiles, Max Wind SpeedMPH, Mean Wind SpeedMPH, Max Gust SpeedMPH,PrecipitationIn, CloudCover, Events, WindDirDegrees
2013-7-1,84,67,50,64,55,46,94,66,39,30.25,30.22,30.18,10,9,7,7,1,,0.00,1,,317
2013-7-2,84,68,53,77,59,52,94,71,35,30.18,30.14,30.07,10,8,3,9,1,,0.00,2,Rain,319
2013-7-3,82,70,57,63,59,54,94,68,45,30.06,30.00,29.91,10,10,5,14,3,,0.00,1,,181
2013-7-4,84,72,60,63,58,54,77,61,45,29.91,29.81,29.73,10,10,10,20,10,28,0.00,0,,161
2013-7-5,84,74,64,68,63,57,88,67,48,29.81,29.76,29.73,10,10,7,13,8,18,0.00,1,,214
2013-7-6,78,70,62,70,63,57,94,80,69,29.86,29.82,29.79,10,10,4,10,2,,0.00,3,Rain,114
2013-7-7,80,70,59,70,62,54,88,73,50,29.97,29.89,29.82,10,7,0,12,2,16,0.00,2,Fog,289
2013-7-8,84,68,53,70,58,46,94,68,42,30.02,29.98,29.93,10,9,0,9,1,,0.00,0,,194
2013-7-9,75,66,57,68,60,54,94,78,60,30.03,29.90,29.83,10,10,2,18,6,28,0.06,5,Rain,313
2013-7-10,77,66,55,57,53,45,94,68,41,30.08,30.05,30.02,10,9,5,14,6,21,0.00,1,,285
2013-7-11,80,66,51,63,58,46,100,71,54,30.06,29.98,29.85,10,9,7,21,6,26,0.00,0,,165
2013-7-12,84,75,66,73,66,61,94,73,58,29.88,29.81,29.76,10,10,2,18,11,25,0.07,2,Rain-Thunderstorm,173
2013-7-13,89,74,60,77,68,59,100,83,58,30.02,29.96,29.88,10,7,0,12,1,,0.01,4,Fog,90
2013-7-14,75,68,62,72,66,61,94,88,73,30.20,30.11,30.02,10,8,2,10,1,,0.01,6,Rain,192
2013-7-15,75,70,64,70,65,63,100,89,73,30.22,30.18,30.10,10,8,0,13,3,23,0.00,5,Fog-Rain,150
2013-7-16,87,78,68,70,66,63,88,73,55,30.18,30.11,30.08,10,10,7,17,11,25,0.00,1,,191
2013-7-17,84,72,60,70,64,57,94,75,58,30.23,30.17,30.09,10,10,7,9,2,,0.01,2,Rain-Thunderstorm,42
2013-7-18,87,76,64,73,69,61,94,78,58,30.08,29.84,29.69,10,10,7,17,7,23,0.00,2,,213
2013-7-19,78,68,59,66,59,52,94,73,42,29.92,29.84,29.71,10,10,10,17,8,30,0.00,3,,293
2013-7-20,73,60,48,54,48,39,88,64,38,30.04,29.99,29.93,10,10,10,9,4,,0.00,3,Rain,33
2013-7-21,78,62,46,63,54,39,87,68,50,29.99,29.87,29.67,10,10,10,12,3,17,0.00,2,Thunderstorm,169
2013-7-22,71,61,51,66,57,48,100,80,60,29.94,29.78,29.63,10,10,7,18,11,24,0.20,6,Rain-Thunderstorm,295
2013-7-23,75,60,44,59,52,45,100,77,44,30.08,30.04,29.95,10,10,3,6,1,,0.00,1,,15
2013-7-24,77,60,44,64,54,43,94,78,50,30.08,30.01,29.91,10,8,0,16,3,20,0.12,3,Fog-Rain-Thunderstorm,221
2013-7-25,75,62,48,64,55,46,100,80,44,29.96,29.93,29.89,10,7,0,20,4,32,0.18,3,Fog-Rain-Thunderstorm,280
2013-7-26,64,55,46,55,51,43,100,83,59,30.20,30.10,29.94,10,10,4,20,12,26,0.10,7,Rain,354
2013-7-27,69,56,42,48,45,39,100,71,43,30.18,30.10,30.04,10,10,10,20,6,28,0.00,3,,349
2013-7-28,75,58,42,57,47,39,100,72,38,30.08,30.06,30.03,10,10,10,9,2,,0.00,3,,347
2013-7-29,75,58,42,55,50,41,93,71,44,30.09,30.06,30.04,10,10,7,15,3,20,0.00,1,,181
2013-7-30,75,64,53,64,58,50,100,85,60,30.09,30.06,30.03,10,10,5,10,4,17,0.05,5,Rain,225
2013-7-31,71,60,48,55,50,45,100,72,43,30.08,30.05,30.02,10,10,7,17,5,25,0.01,2,Rain,274